Starlink 6076

operational
NORAD ID: 56100 Int'l Des: 2023-046 Owner: SPXS Country: US Constellation: starlink
LEOCIRCULAR

Über Starlink 6076

Beschreibung wird geladen...

Live-Position

3D-Globus wird geladen...

Nächste Überflüge

Höhenverlauf

Altitude vs Time

uPlot chart will show altitude changes over time

Zweizeiliger Elementsatz

1 56100U 23046H 25258.67059621 .00000474 00000-0 50151-4 0 9996
2 56100 43.0050 30.0342 0001437 271.5240 88.5438 15.02537824135736
Epoch: 15. Sept. 2025 • Age: 18 hours

Aktueller Status

Höhe 558.8 km
Geschwindigkeit 7.59 km/s
Subsatellitenpunkt 19.63°N, 93.83°W
Startdatum 29. März 2023
Alter 2.4 years
Typ internet

Technische Details

Klassifizierung Payload
Masse 305.00 kg
Trockenmasse 290.00 kg
Gesamtmasse 305.00 kg
Länge 0.20 m
Durchmesser 2.80 m
Spannweite 9.00 m
Form Box + pan
Hersteller SPXS
Bus-Typ Starlink
Phasenstatus In Orbit
Besitzer/Staat SPXS/US

Große Konstellationen

Loading constellations...